Theta_e
340 339 340 340 340 339 339 339 339 339 339 338 337 337 336 335 335 335 336 336 336 335 334 333 333 332 332 332 331 331 330 328 327 325 324 324 322 321 323 324 326 325 317 311 310 309 310 311 308 307 307 306 305 305 305 304 301 301 302 302 301 300 300
340 340 340 340 340 339 339 339 339 339 338 337 337 336 336 335 334 335 336 336 335 334 333 333 333 332 332 332 331 331 330 328 328 327 325 326 326 324 323 324 325 319 312 311 310 307 309 310 310 308 307 307 306 306 306 304 301 301 301 301 301 300 300
339 339 339 339 339 338 338 338 338 338 338 337 337 336 336 335 335 335 335 335 334 333 333 333 332 332 331 331 331 331 330 330 328 327 327 327 327 327 325 325 323 317 312 312 310 308 308 308 309 308 306 307 307 306 305 302 301 302 301 301 301 300 300
339 339 339 339 338 337 337 337 337 337 337 336 336 336 335 335 335 335 334 334 333 333 333 332 332 332 331 331 330 330 329 329 329 328 327 327 327 327 326 325 325 322 319 317 314 311 309 308 309 309 307 306 305 303 302 302 301 301 301 301 300 300 300
339 339 338 338 337 336 336 336 336 336 335 335 335 335 335 335 335 334 334 333 333 332 332 331 331 331 330 329 329 328 328 328 328 326 325 324 323 325 326 325 325 326 325 325 322 317 312 310 309 308 306 304 302 301 301 303 302 301 301 301 300 299 299
339 339 339 338 337 337 336 336 336 336 336 335 335 335 335 335 334 333 333 333 332 332 331 331 330 329 328 327 327 326 326 327 326 324 322 321 320 321 325 326 325 325 325 325 324 320 315 310 308 307 305 302 301 301 301 303 302 301 300 300 299 299 298
339 339 339 338 338 337 337 337 337 336 336 335 335 335 335 334 334 333 333 332 331 331 331 330 329 327 326 325 325 324 324 324 322 320 318 317 317 317 320 322 322 322 323 322 321 319 314 310 308 307 304 301 301 301 301 302 302 301 300 299 298 298 297
339 339 339 339 338 338 338 337 337 337 336 335 334 334 335 334 334 333 332 331 331 331 330 328 326 325 324 323 322 322 322 321 318 317 315 314 314 314 315 316 317 319 319 318 317 317 314 311 308 306 303 302 302 302 301 302 302 302 300 298 297 296 296
339 339 339 339 339 339 338 338 337 337 336 335 334 334 334 334 333 333 332 330 330 330 327 326 324 324 322 321 319 319 320 319 317 316 315 313 312 312 313 313 314 315 315 314 314 315 313 310 308 306 303 303 303 303 304 304 303 302 301 299 297 296 296
339 339 339 339 339 338 338 338 337 337 336 335 335 334 334 333 332 332 331 330 329 328 326 324 323 321 319 317 315 317 318 317 316 315 313 312 312 311 311 311 312 312 312 312 313 314 313 310 307 306 304 303 303 304 306 306 304 302 302 301 298 296 296
339 339 339 339 338 338 337 337 336 336 336 335 335 333 332 332 331 331 329 329 328 326 324 322 320 317 315 313 314 316 316 315 315 313 312 311 310 310 309 309 309 310 310 311 311 311 311 310 307 306 305 304 303 303 304 305 305 302 301 301 298 296 296
339 339 339 339 338 337 337 336 336 336 336 335 334 333 332 331 331 330 328 328 327 324 321 319 317 314 311 310 313 315 314 314 313 312 310 309 309 308 307 307 307 307 308 309 309 309 310 309 308 307 304 303 302 303 302 303 304 303 301 300 297 296 296
339 338 338 338 338 336 336 336 335 335 335 335 334 332 331 331 330 329 328 327 325 321 318 316 314 311 309 309 311 313 313 312 312 310 309 308 307 306 305 305 305 305 306 308 308 308 308 308 309 307 305 302 302 303 302 302 303 303 301 299 297 296 296
338 338 338 338 337 336 335 335 335 335 334 334 334 332 331 330 330 329 328 326 323 319 316 315 313 310 308 309 310 311 311 310 310 309 308 306 305 305 304 303 302 303 304 306 307 307 307 307 308 307 305 303 302 303 302 302 302 301 300 298 296 296 296
337 338 338 337 336 336 335 334 334 334 333 333 333 332 331 330 330 329 327 324 320 317 315 314 312 310 309 309 309 309 309 309 308 307 306 305 304 303 302 301 301 301 301 303 304 305 306 305 305 305 304 303 303 303 302 302 302 300 300 298 296 296 296
337 337 337 336 336 335 334 334 334 334 333 332 332 331 331 330 329 328 326 322 318 316 315 314 312 310 309 309 308 308 308 308 307 306 305 304 303 302 301 301 300 300 300 300 301 301 303 304 304 304 304 303 303 302 302 302 302 300 299 297 296 296 296
336 336 336 335 335 335 334 334 334 333 332 332 332 331 330 329 328 327 324 320 317 316 315 313 312 310 309 309 308 308 307 307 306 306 304 304 303 302 302 301 301 301 300 300 300 299 300 301 302 303 303 302 302 302 301 301 301 300 299 297 296 296 296
335 335 335 335 335 334 334 334 333 332 332 331 331 330 329 328 327 325 321 319 317 316 315 314 311 310 309 308 308 307 307 306 306 305 304 303 303 302 302 301 301 301 300 300 300 299 299 299 300 301 301 301 301 301 301 301 300 300 299 297 296 296 297
334 334 334 334 334 334 333 333 332 330 330 330 331 330 329 328 326 323 320 318 317 316 315 313 311 309 308 308 307 307 306 306 305 304 303 303 302 302 302 301 301 301 301 300 300 300 300 299 300 300 301 301 300 300 300 300 300 300 299 296 296 297 297
334 334 334 334 334 334 333 332 330 328 329 330 331 330 329 327 324 321 318 318 318 317 315 313 310 309 308 308 307 306 306 305 304 303 303 302 302 302 302 301 301 301 301 301 301 301 300 300 300 300 300 300 300 300 300 300 300 299 297 296 296 297 298
333 333 333 333 334 333 332 331 329 328 329 330 330 330 328 326 322 319 318 318 318 316 314 312 310 308 308 307 307 306 305 304 303 302 302 302 303 303 302 302 302 302 302 301 301 301 301 301 300 300 300 300 300 299 299 300 300 297 296 296 297 298 298
333 332 333 333 333 332 331 331 330 329 329 330 329 328 327 325 321 318 318 318 317 316 313 311 309 308 307 307 307 306 305 304 303 302 303 303 303 303 303 302 302 302 302 301 301 301 301 301 301 300 300 300 299 298 299 300 298 296 295 296 297 298 298
332 332 332 333 332 330 330 330 329 328 328 328 327 326 325 323 320 319 319 318 316 315 312 310 308 307 307 307 306 306 305 304 303 303 303 304 303 303 303 302 302 302 302 301 301 301 301 300 300 300 299 299 298 297 298 299 297 295 296 297 298 298 298
332 331 332 332 331 330 329 329 328 328 328 327 325 325 323 321 319 319 319 318 316 313 311 309 308 307 307 307 306 306 305 304 303 304 304 304 304 303 303 303 302 302 302 301 301 301 300 298 298 299 298 297 297 296 297 297 296 296 297 298 298 299 299
331 331 331 331 331 329 328 328 327 327 327 326 325 324 322 320 319 318 318 318 315 312 309 308 308 307 307 307 307 306 306 305 305 304 305 304 304 304 303 303 303 302 302 302 302 302 301 297 296 298 297 296 296 295 296 296 296 296 297 297 298 299 299
331 331 330 329 329 329 328 326 326 327 326 325 325 324 320 319 319 318 318 317 314 311 309 308 308 308 307 307 307 306 306 305 305 305 305 304 304 304 303 303 303 303 302 302 302 302 301 297 295 296 295 295 295 295 295 295 295 296 296 297 298 299 299
331 330 328 327 327 327 327 327 326 327 325 323 323 322 319 318 318 318 318 316 313 310 309 308 308 308 308 307 307 306 306 305 304 304 304 304 304 303 303 303 303 303 302 301 301 301 299 296 294 295 295 295 296 296 296 296 296 295 295 296 298 299 299
331 329 327 327 326 325 325 326 325 325 324 323 324 322 319 319 319 318 317 315 312 310 309 309 308 308 308 307 307 307 306 305 305 304 304 304 304 303 304 304 303 303 301 299 299 299 297 294 294 296 297 298 298 298 299 298 297 296 295 296 298 299 299
329 328 326 326 325 324 323 323 324 324 323 322 322 322 319 319 320 319 317 315 313 311 310 308 308 308 307 307 307 307 306 305 305 305 305 304 304 304 304 303 303 302 301 298 296 297 296 295 296 298 299 300 300 300 300 300 299 298 297 297 298 299 299
329 327 326 325 325 324 323 321 322 323 321 319 320 320 319 319 320 319 317 315 314 312 310 308 307 307 307 307 307 307 306 306 305 305 305 304 304 304 304 304 302 301 300 297 295 296 296 296 297 298 299 299 300 300 301 301 301 300 298 297 298 299 299
328 326 325 325 324 323 323 322 322 323 321 320 322 321 319 320 319 318 317 316 314 312 310 309 308 307 307 308 307 307 306 306 305 305 304 304 305 304 303 304 302 300 299 297 295 294 295 296 297 298 299 300 300 300 301 301 301 301 300 298 298 298 299
328 326 325 325 324 323 322 323 324 323 321 322 323 321 319 319 318 318 318 317 315 312 310 309 308 307 307 308 307 307 306 306 305 305 305 305 304 304 303 303 302 300 300 299 295 293 295 297 297 298 299 300 300 300 300 301 301 301 301 299 298 297 298
327 326 325 325 324 322 321 322 323 322 320 321 320 319 318 319 319 318 318 317 315 313 311 310 309 308 308 308 308 307 306 306 305 305 305 304 304 304 303 303 302 300 301 301 296 292 294 296 297 297 298 298 299 299 298 300 301 301 301 300 298 296 297
327 326 325 325 324 322 321 322 322 322 320 319 317 316 318 319 319 319 318 317 315 313 312 311 310 308 308 308 308 307 306 306 306 305 305 304 304 304 302 302 302 301 302 302 297 293 294 296 296 297 298 297 297 296 296 299 301 301 301 300 298 297 297
328 325 324 324 323 322 321 321 321 321 319 317 316 315 316 316 316 315 315 314 314 313 312 312 310 309 308 308 307 307 306 306 306 306 305 305 305 304 303 302 302 302 302 302 299 294 294 295 296 298 300 299 296 294 295 299 301 300 300 300 298 297 297
327 325 323 323 322 321 320 319 319 318 317 316 315 314 314 313 312 312 311 310 311 311 311 311 310 309 308 307 307 307 306 306 306 306 306 305 305 305 304 303 303 303 302 302 301 298 297 297 298 300 301 301 299 295 295 299 301 300 300 299 297 296 297
325 324 323 322 322 321 320 318 317 317 316 315 314 313 312 311 311 310 309 309 309 309 310 310 310 310 309 308 307 307 306 306 306 306 305 305 305 305 305 304 304 303 302 302 302 302 301 300 301 301 302 302 300 297 296 298 300 300 300 299 297 296 297
Wind_Speed
26 23 21 22 22 22 22 21 20 18 17 15 14 14 13 12 11 12 12 14 15 16 17 19 19 19 20 21 23 24 25 25 25 27 27 24 24 21 16 10 4 8 18 17 15 13 6 2 5 8 9 8 7 7 5 7 10 9 8 8 8 7 7
25 23 22 22 22 22 21 20 19 18 17 16 15 14 13 12 12 12 13 15 16 17 18 18 17 17 18 19 21 23 24 25 24 24 26 25 26 24 20 14 8 14 17 13 16 15 8 5 4 4 8 9 6 5 6 10 11 9 8 8 8 7 7
24 24 23 22 23 22 21 21 20 19 18 17 16 14 13 13 13 13 14 15 17 17 18 18 17 16 16 17 18 20 21 23 24 24 23 24 25 24 22 19 15 17 14 9 13 13 8 7 5 5 10 10 6 6 10 14 12 9 9 9 8 7 7
26 26 25 24 23 22 22 21 20 20 19 18 16 15 14 14 14 14 14 16 16 17 16 16 16 15 15 16 17 18 19 21 23 24 23 22 23 24 23 22 20 20 17 13 17 18 12 9 7 6 9 11 11 12 15 14 12 10 9 9 7 6 7
29 29 28 27 25 24 24 22 21 20 19 18 16 15 16 15 16 16 16 16 16 16 15 14 14 14 14 15 15 16 17 19 21 22 23 21 21 23 24 23 21 21 21 19 20 22 19 17 17 11 10 13 11 12 16 14 11 10 10 9 7 6 7
31 30 30 29 28 26 25 24 23 22 21 20 18 18 18 18 18 17 17 17 15 15 14 13 14 14 14 13 14 14 15 17 19 20 20 20 19 20 22 23 21 20 21 19 17 20 21 22 24 17 11 13 11 12 13 12 12 11 9 9 7 6 7
32 31 31 30 29 28 27 26 25 24 23 22 21 20 19 19 19 18 17 16 15 14 14 14 14 13 12 13 13 14 14 15 17 17 17 17 17 17 18 20 20 19 20 17 16 20 21 23 27 24 15 11 11 12 9 9 10 9 8 8 7 7 8
33 32 32 31 30 29 28 27 26 25 24 23 22 21 20 20 19 18 17 16 15 14 14 13 13 12 12 12 12 13 13 14 15 15 15 15 15 16 15 16 16 16 17 15 15 19 22 24 28 31 25 14 6 5 4 6 7 8 10 9 7 7 8
33 32 32 31 30 30 29 27 26 26 25 23 22 21 21 21 20 18 17 16 14 14 14 12 11 11 12 11 11 12 13 14 14 13 13 14 14 14 14 14 14 14 14 13 15 17 19 24 29 31 31 24 13 4 1 3 4 6 9 8 6 8 8
34 33 32 31 30 29 27 27 26 26 25 23 22 22 21 20 19 18 17 16 15 15 14 12 10 11 11 10 11 12 13 14 13 12 13 14 14 14 14 14 13 14 13 13 14 16 18 24 29 29 28 27 22 11 3 2 4 5 7 7 5 7 8
35 34 33 32 30 29 27 27 27 27 26 24 22 22 21 20 19 18 17 16 16 15 14 12 11 11 11 11 11 12 13 13 12 13 13 14 14 14 14 14 14 13 13 13 14 15 17 23 29 29 27 26 23 17 10 6 3 5 8 7 7 7 8
35 35 33 32 30 29 29 28 28 28 27 25 23 23 22 21 19 18 18 17 16 16 13 11 11 12 12 11 12 13 13 13 13 14 15 14 14 15 15 15 14 14 13 13 13 13 15 20 27 29 27 25 21 17 17 13 5 5 9 9 9 9 8
35 35 34 32 31 30 30 30 29 29 28 25 24 24 23 22 20 19 18 18 18 16 14 12 12 12 12 11 12 14 14 14 14 15 16 15 15 15 15 15 15 14 14 14 14 13 14 17 23 27 25 24 19 13 16 16 9 6 10 10 10 10 8
35 35 34 32 31 30 30 30 30 30 29 26 25 25 24 22 21 19 19 19 19 17 15 13 13 13 12 13 14 14 14 15 15 16 17 17 16 16 16 16 15 14 14 14 13 13 13 14 19 23 22 20 16 13 15 16 15 12 11 11 10 9 8
35 34 34 32 31 30 30 30 30 30 30 28 26 25 24 22 21 20 20 20 19 17 15 14 14 13 13 14 15 15 15 16 17 18 18 18 18 17 16 16 16 15 13 13 14 13 14 14 15 18 18 16 15 14 15 16 17 16 13 12 11 10 8
34 34 33 32 31 30 30 30 30 31 30 28 26 25 23 23 21 20 21 21 19 17 15 14 14 14 14 15 16 16 17 18 18 19 20 19 19 19 18 17 17 16 14 14 14 13 13 14 14 15 15 14 15 15 15 15 16 17 15 13 11 10 9
34 34 33 32 32 31 30 30 30 31 31 29 26 24 23 22 21 21 22 22 19 17 16 15 15 15 15 16 16 17 18 19 19 20 20 20 20 20 19 18 17 17 15 14 14 13 12 13 13 14 14 14 14 15 14 13 14 16 17 14 11 10 9
34 34 33 32 32 31 30 30 30 31 31 30 27 24 23 22 23 23 24 22 19 18 16 16 16 16 16 16 16 18 19 19 19 19 19 20 20 20 19 18 18 17 16 15 14 13 12 12 12 13 14 14 14 14 14 12 11 13 16 15 13 11 9
34 34 33 32 32 31 30 30 30 30 30 30 27 24 23 24 24 24 24 21 19 17 16 16 16 17 17 17 17 18 19 19 19 19 20 20 21 20 19 17 17 17 16 15 14 14 12 12 12 13 13 14 14 14 13 12 11 12 14 15 14 12 10
35 34 33 32 31 30 30 29 28 28 28 27 25 23 23 25 25 24 23 20 18 17 16 17 17 17 17 18 18 19 19 19 19 19 20 20 20 20 18 17 16 16 15 14 13 13 12 11 11 12 12 13 14 14 14 13 13 13 14 15 14 12 9
35 34 33 32 31 30 29 28 27 27 27 26 24 23 24 26 26 24 22 19 18 17 17 17 18 18 18 18 19 19 19 19 20 20 20 20 19 18 17 16 15 15 14 13 11 11 11 11 11 12 12 13 13 14 15 15 14 14 14 15 14 11 8
34 34 33 32 30 29 29 29 29 28 28 26 24 23 25 27 27 24 22 20 18 17 18 18 19 18 18 19 19 19 19 19 20 21 20 19 18 17 16 15 14 14 13 12 10 9 9 9 10 11 13 14 13 14 15 15 15 15 15 14 13 11 8
33 33 33 32 31 30 30 30 29 29 27 25 23 24 26 27 27 25 23 21 19 18 18 19 18 18 17 18 19 19 19 19 20 21 20 19 18 17 16 15 14 13 13 11 10 8 8 9 10 11 12 13 14 15 16 16 16 16 15 14 13 11 9
34 34 33 33 31 31 30 30 29 29 27 24 23 24 26 27 26 25 23 21 20 19 19 19 18 17 17 17 18 18 19 20 20 20 20 20 19 17 16 15 14 13 12 11 10 8 7 7 9 11 12 12 13 14 14 16 17 17 15 14 14 12 10
35 35 33 33 33 32 31 30 30 30 27 25 24 25 26 27 26 24 22 20 19 19 19 18 17 17 17 17 17 18 19 20 20 21 20 20 19 18 16 16 15 13 12 11 10 9 8 8 10 12 13 13 13 13 12 13 15 15 15 15 15 13 11
34 34 33 32 33 33 32 31 31 29 27 26 26 26 27 26 25 24 22 20 19 18 18 18 17 16 16 17 17 18 18 19 20 20 20 20 19 18 17 16 15 13 11 11 11 11 10 11 14 16 16 15 15 14 13 12 11 12 13 14 14 14 11
34 32 32 31 32 33 33 33 31 29 28 27 27 27 27 26 25 24 22 19 18 18 17 17 17 16 16 17 18 18 19 19 19 20 20 19 18 18 18 17 15 13 12 13 15 14 14 16 19 19 18 18 17 16 15 14 13 12 12 12 13 13 10
34 33 32 33 32 31 32 33 32 30 29 28 27 27 28 27 25 24 21 19 18 17 17 17 16 16 17 17 18 19 19 19 20 20 19 18 18 18 17 16 14 12 13 16 16 16 16 20 21 20 19 18 17 16 16 14 13 13 12 12 13 12 9
35 34 34 34 34 32 31 31 33 32 29 28 27 27 28 28 26 24 21 19 18 17 17 17 16 17 17 18 19 20 20 20 21 20 20 19 18 18 18 16 14 13 14 15 16 16 18 21 21 20 19 18 17 16 16 14 13 12 11 12 12 12 9
35 34 34 34 34 34 33 32 32 32 30 28 27 27 29 29 26 24 22 20 19 19 18 18 18 18 19 20 21 21 22 22 21 21 20 19 19 19 19 17 14 13 14 16 17 19 21 21 20 19 19 18 16 16 16 14 14 13 12 12 12 13 10
35 35 35 35 35 35 34 34 33 32 31 29 27 28 30 29 27 24 23 21 21 20 20 19 19 19 20 21 22 23 23 23 22 21 21 20 20 21 20 18 15 15 16 16 18 22 23 22 21 19 18 18 17 18 17 16 15 15 13 12 13 13 11
36 36 36 36 35 35 35 35 34 32 31 28 28 30 31 30 28 26 24 22 22 21 20 20 20 21 22 23 23 24 24 24 23 23 22 23 23 21 20 19 18 18 17 16 19 23 25 23 22 20 19 19 19 20 19 17 16 15 14 13 12 13 12
36 37 37 35 33 32 33 34 34 33 30 28 29 31 32 30 28 26 25 23 24 23 22 21 21 22 23 24 24 25 25 25 24 24 24 25 24 22 22 23 21 19 18 18 19 24 26 25 23 21 20 21 22 22 20 18 17 16 15 13 12 12 12
37 37 37 36 35 33 33 35 35 34 31 29 30 31 31 31 29 28 27 26 26 25 23 21 21 21 23 24 25 26 26 25 24 24 25 26 26 23 23 24 23 21 21 19 19 23 26 25 23 22 21 22 22 21 20 18 17 16 15 13 12 12 12
38 36 35 36 37 36 34 34 35 34 33 32 32 31 31 31 30 29 28 28 28 26 24 22 21 21 23 25 27 27 27 25 24 25 26 27 28 25 23 22 23 23 22 20 19 22 24 24 24 23 21 18 17 17 18 17 16 15 15 14 13 13 13
37 35 34 35 35 34 32 31 31 32 33 32 32 31 30 29 28 27 26 26 27 27 26 24 23 22 23 25 28 28 26 25 26 26 26 27 27 25 23 22 22 23 23 22 21 21 22 22 23 23 20 16 15 15 16 16 16 16 15 14 13 13 14
35 34 35 35 33 32 31 30 29 30 31 32 31 30 28 28 28 26 25 25 27 28 27 26 24 23 23 25 27 28 28 27 27 27 27 26 25 24 23 21 21 22 23 22 22 22 22 22 23 23 21 17 15 15 16 17 17 17 16 15 14 14 14
Wind_Direction
199 197 199 201 203 204 205 204 204 204 205 207 210 212 212 211 210 205 198 196 197 195 193 195 198 200 199 198 200 203 202 201 198 195 192 187 191 202 207 209 222 177 171 172 173 165 144 162 193 195 195 185 176 167 137 121 127 124 112 112 114 103 81
199 197 196 198 199 200 200 198 200 200 199 201 206 209 210 211 209 203 198 196 196 197 196 197 199 201 204 206 207 208 208 209 210 208 204 201 202 204 204 204 190 166 169 176 175 166 143 145 170 195 185 172 168 171 147 133 130 128 124 123 122 106 78
193 192 192 193 195 195 194 192 194 196 196 197 200 204 207 208 205 201 199 198 197 200 201 202 204 206 209 215 218 218 218 218 217 215 216 216 215 214 210 204 186 169 167 167 174 169 148 148 156 170 176 166 146 139 138 134 127 122 126 129 125 102 71
189 187 187 188 189 189 188 187 190 193 195 197 198 199 202 203 201 198 198 200 200 202 205 207 210 214 218 222 227 228 226 225 222 221 224 224 223 221 218 213 203 195 192 190 190 183 167 153 147 152 164 154 136 132 132 128 120 118 123 128 122 89 58
192 189 187 187 188 187 186 186 188 191 192 195 198 199 200 200 198 196 197 201 202 203 209 213 217 223 227 229 232 231 230 230 228 226 225 225 226 223 220 219 218 216 213 212 206 196 189 175 157 143 144 142 132 133 135 125 114 116 120 123 112 76 51
195 193 191 190 190 190 190 189 189 191 193 195 199 202 202 199 197 197 199 201 203 207 213 220 226 229 231 232 234 232 231 232 230 227 225 225 226 226 224 221 220 223 220 220 217 206 198 176 155 142 140 143 137 140 143 131 115 107 111 117 99 66 49
196 195 194 194 194 194 195 195 196 197 198 200 202 204 203 200 199 200 202 203 206 213 219 225 228 231 232 232 234 232 229 227 223 223 223 223 223 222 224 222 220 221 218 219 218 207 196 175 156 146 137 131 134 142 151 150 137 118 111 112 91 66 50
197 197 197 198 199 199 200 201 203 204 205 205 206 205 203 201 200 200 204 207 211 218 225 226 226 230 233 231 228 227 224 220 218 217 217 220 220 217 217 217 214 212 211 212 211 205 198 185 170 158 149 138 130 142 155 162 158 141 128 112 86 73 58
198 197 197 199 202 203 203 204 207 208 208 208 208 205 202 202 202 202 204 208 215 222 226 224 227 234 233 226 220 219 218 215 214 214 214 214 213 210 207 206 205 201 202 203 199 199 198 191 182 172 163 156 151 151 161 164 162 150 146 132 92 76 67
196 196 197 198 201 203 205 206 207 206 205 207 206 204 201 201 202 205 207 210 217 225 226 223 228 231 227 221 214 211 210 209 206 206 210 207 202 200 197 196 199 197 193 194 195 196 196 191 185 181 180 175 166 157 142 174 187 167 162 166 133 86 76
197 198 198 199 201 203 204 204 204 203 203 204 205 203 201 201 203 207 209 212 219 225 223 220 221 222 219 215 207 204 204 203 200 199 201 200 194 192 191 190 193 193 189 189 192 192 193 193 188 184 188 189 181 173 162 152 181 172 150 149 138 105 89
197 198 198 200 202 202 202 203 203 203 202 203 205 206 203 202 204 209 211 215 223 224 217 212 214 214 213 209 202 199 200 199 198 193 191 192 189 188 187 185 186 185 183 184 186 186 188 192 192 189 189 190 190 189 174 156 145 174 157 142 128 113 98
197 198 198 200 201 201 202 203 202 201 202 204 208 208 205 204 207 211 213 218 222 218 208 205 209 209 209 208 203 199 197 194 195 191 185 184 184 185 183 180 180 179 178 180 179 181 185 189 192 193 193 193 192 194 182 162 137 145 155 143 131 119 106
197 197 198 200 200 199 201 202 201 200 201 206 209 207 206 207 210 214 217 219 219 212 204 203 206 207 208 207 201 198 195 193 192 189 184 181 179 182 181 175 171 170 173 176 173 174 179 183 191 194 197 199 194 190 186 165 136 134 145 140 132 126 118
196 196 196 197 197 198 199 199 201 202 201 205 208 207 208 209 212 217 220 218 215 208 204 205 207 208 208 204 198 196 196 194 192 188 184 181 178 180 181 174 165 161 165 169 166 168 173 173 182 188 190 196 193 185 187 171 145 138 144 142 137 133 125
195 194 194 194 195 197 197 199 203 204 202 203 206 208 211 211 214 219 218 214 210 206 204 206 209 210 207 204 199 196 196 195 194 191 185 182 180 181 180 174 165 161 162 162 158 160 166 169 174 178 177 182 183 176 182 183 161 145 142 142 142 137 126
193 193 193 193 195 196 198 201 204 203 201 202 204 207 210 214 218 219 214 210 207 206 206 206 208 208 206 205 202 198 195 195 196 195 190 186 184 183 182 176 169 166 165 161 155 155 160 163 169 171 167 168 172 168 169 178 173 158 148 143 142 138 125
192 192 192 193 195 196 199 203 203 202 200 199 201 205 210 215 218 216 211 208 206 207 209 209 208 205 203 203 203 200 197 196 197 196 194 190 187 186 186 182 175 172 171 165 159 157 158 159 162 165 162 161 163 164 163 167 170 164 154 144 140 138 126
191 191 191 193 194 196 200 202 200 199 197 194 197 206 213 216 216 213 210 208 208 210 211 211 209 205 202 201 201 202 200 197 197 197 195 193 191 189 189 188 182 178 178 175 167 162 160 160 162 163 163 162 161 161 161 159 159 158 151 143 140 138 131
191 190 190 192 194 196 200 201 197 194 195 196 200 206 213 216 214 212 210 208 210 213 212 210 209 206 204 201 200 201 199 197 197 196 195 193 193 192 192 193 190 185 186 186 179 172 168 166 167 168 168 165 163 162 159 155 155 154 149 144 142 140 135
190 189 190 191 193 194 197 200 199 197 199 201 204 209 213 214 212 209 209 209 212 215 213 210 208 205 204 203 202 201 199 198 196 194 193 193 193 193 194 196 196 193 194 196 193 187 183 180 176 174 174 172 169 165 159 155 155 155 152 149 145 143 141
188 187 187 188 190 190 193 199 200 199 199 200 204 210 212 212 210 207 206 209 214 216 214 212 209 206 205 203 203 203 201 200 197 194 192 192 193 193 192 194 195 195 197 200 201 201 199 201 200 192 185 181 176 169 161 158 159 158 157 154 150 150 154
185 184 185 185 186 187 191 196 195 192 194 198 201 206 207 207 209 208 206 209 213 214 214 213 211 210 209 206 205 204 203 201 199 197 194 193 192 192 192 194 195 196 200 201 201 202 202 210 217 213 202 189 181 173 165 162 164 164 161 159 159 163 169
182 183 184 183 185 187 190 192 190 189 194 197 199 203 204 205 208 208 207 211 213 214 213 213 212 211 211 211 209 207 205 204 202 201 201 199 196 194 194 195 195 196 199 199 198 200 204 210 213 213 205 193 187 182 174 169 168 169 169 167 168 175 181
181 182 182 182 184 187 188 188 187 188 192 194 196 201 203 205 206 206 208 212 214 215 214 213 213 213 212 213 213 212 210 208 206 206 206 204 202 199 196 193 193 194 196 200 203 206 210 209 201 196 189 183 184 188 188 183 179 178 178 177 178 184 190
180 181 180 181 182 184 184 184 184 187 191 192 194 199 202 204 205 205 208 212 214 215 215 215 214 215 215 215 215 216 215 212 211 210 208 207 205 202 197 194 192 191 195 205 209 211 215 206 190 181 175 173 176 179 183 188 189 188 188 187 187 190 192
181 180 179 178 180 181 182 184 186 188 189 190 192 196 200 201 203 205 209 212 214 215 216 217 216 216 218 218 217 217 216 215 214 213 211 210 207 203 201 199 196 198 210 217 213 209 208 197 185 178 175 174 175 177 179 182 185 187 191 197 199 196 196
181 180 179 178 179 180 181 183 184 186 188 190 193 196 199 201 202 205 209 211 213 216 217 218 218 219 219 219 218 217 216 215 215 215 214 213 209 206 204 202 205 218 227 224 217 211 201 191 185 182 182 182 183 184 186 187 187 189 194 201 203 202 207
179 178 177 178 179 180 181 181 181 184 187 190 192 195 198 200 202 204 206 208 211 214 217 217 218 219 218 217 217 216 215 216 216 216 216 212 208 205 205 207 216 230 235 230 224 214 201 194 191 189 192 194 195 198 199 198 197 198 200 203 203 206 214
178 177 176 177 179 180 181 181 180 182 185 186 187 193 197 199 202 203 203 206 209 211 213 213 214 215 215 215 215 214 215 215 215 217 216 212 208 207 207 213 222 226 230 234 228 212 202 200 199 199 202 205 208 212 212 210 209 209 209 208 207 210 219
178 176 176 177 179 180 180 180 181 183 185 185 187 194 197 197 200 202 203 205 208 209 210 211 212 213 213 214 215 214 214 214 213 215 214 209 209 209 206 211 224 227 228 233 226 211 204 206 208 209 213 215 219 222 221 219 218 216 215 216 214 217 224
178 177 178 180 181 181 179 179 181 185 187 188 189 193 196 196 197 201 204 207 208 208 210 211 212 214 214 213 215 215 214 212 211 212 212 209 208 209 210 218 232 236 235 237 228 214 208 210 214 217 221 224 228 230 228 227 224 221 221 223 224 226 228
179 179 180 180 181 180 178 178 180 183 185 187 188 190 193 196 198 201 204 208 211 211 211 212 214 216 216 215 215 215 213 212 211 211 211 210 207 210 219 229 237 238 237 239 230 218 213 215 219 223 228 231 235 238 237 234 231 229 229 230 236 239 235
181 181 181 181 180 180 180 180 180 181 182 184 185 187 191 196 199 201 204 209 212 211 211 213 215 217 218 217 217 216 215 215 217 216 213 212 212 218 228 233 234 234 236 238 230 220 218 223 226 229 232 235 240 244 244 240 236 234 234 238 246 246 238
183 182 181 180 179 178 180 181 180 179 178 180 184 187 190 194 198 201 205 209 212 211 211 214 217 218 220 220 218 218 218 220 221 220 216 214 216 224 236 239 236 234 235 236 231 223 223 227 230 231 233 237 243 248 247 244 241 238 240 247 252 246 238
182 182 180 180 178 176 176 178 178 176 176 178 181 184 188 192 195 199 204 208 211 212 212 214 217 219 222 222 220 220 221 223 224 222 220 220 223 230 241 244 240 237 236 235 230 225 224 226 228 231 235 239 245 247 245 244 243 242 245 252 254 248 240
181 180 178 178 177 174 174 175 175 176 177 177 177 181 186 189 191 196 202 206 209 211 212 215 218 222 225 226 223 222 223 224 225 225 226 227 231 237 243 245 243 242 239 235 229 227 226 226 228 234 237 239 244 244 242 243 243 244 248 252 255 254 247